Weather History for KSBY - October, 2012

Change the Weather History Date:

Tuesday, October 9, 2012

  Actual Average Record
Temperature  
Mean Temperature 58 °F 59 °F  
Max Temperature 62 °F 70 °F 92 °F (2007)
Min Temperature 53 °F 48 °F 24 °F (2001)
Degree Days  
Heating Degree Days 7 7  
Month to date heating degree days 34 51  
Since 1 July heating degree days 53 99  
Cooling Degree Days 0 1  
Month to date cooling degree days 50 13  
Year to date cooling degree days 1712 1138  
Growing Degree Days 8 (Base 50)    
Moisture  
Dew Point 54 °F    
Average Humidity 89    
Maximum Humidity 93    
Minimum Humidity 84    
Precipitation  
Precipitation 0.02 in 0.12 in 1.66 in (1927)
Month to date precipitation 0.80 1.05  
Year to date precipitation 31.10 36.10  
Snow  
Snow 0.00 in 0.00 in 0.00 in (2002)
Month to date snowfall 0.0 0.0  
Since 1 July snowfall 0.0 0.0  
Snow Depth 0.00 in    
Sea Level Pressure  
Sea Level Pressure 30.10 in    
Wind  
Wind Speed 7 mph (North)    
Max Wind Speed 15 mph    
Max Gust Speed 20 mph    
Visibility 5 miles    
Events Rain    
T = Trace of Precipitation, MM = Missing Value Source: NWS Daily Summary

Daily Weather History Graph

Daily Weather History Graph

Search for Another Location

Airport or City:

Trip Planner

Search our weather history database for the weather conditions in past years. The results will help you decide how hot, cold, wet, or windy it might be!

Date:

Astronomy

Oct. 09, 2012 Rise Set
Actual Time 7:05 AM EDT 6:32 PM EDT
Civil Twilight 6:39 AM EDT 6:58 PM EDT
Nautical Twilight 6:08 AM EDT 7:29 PM EDT
Astronomical Twilight 5:37 AM EDT 7:59 PM EDT
Moon 12:44 AM EDT (10/9) 2:53 PM EDT (10/9)
Length of Visible Light 12h 19m
Length of Day
11h 26m
Last Quarter, 37% of the Moon is Illuminated
Oct 9
Last Quarter
Oct 15
New
Oct 21
First Quarter
Oct 29
Full
Nov 6
Last Quarter

Hourly Weather History & Observations

Time (EDT) Temp. Dew Point Humidity Pressure Visibility Wind Dir Wind Speed Gust Speed Precip Events Conditions
12:14 AM 53.6 °F 50.0 °F 88% 30.15 in 10.0 mi North 6.9 mph - N/A   Overcast
12:31 AM 53.6 °F 50.0 °F 88% 30.13 in 8.0 mi NNE 8.1 mph - 0.00 in Rain Light Rain
12:54 AM 54.0 °F 51.1 °F 90% 30.14 in 7.0 mi North 6.9 mph - 0.00 in   Overcast
1:52 AM 55.4 °F 51.8 °F 88% 30.12 in 5.0 mi North 6.9 mph - 0.00 in Rain Light Rain
1:54 AM 55.0 °F 52.0 °F 89% 30.13 in 5.0 mi NNE 5.8 mph - 0.00 in Rain Light Rain
2:54 AM 55.9 °F 52.0 °F 87% 30.13 in 6.0 mi North 5.8 mph - 0.00 in   Overcast
3:18 AM 55.4 °F 51.8 °F 88% 30.12 in 6.0 mi NNW 8.1 mph - N/A   Overcast
3:31 AM 55.4 °F 51.8 °F 88% 30.12 in 6.0 mi North 6.9 mph - N/A   Overcast
3:47 AM 55.4 °F 51.8 °F 88% 30.12 in 6.0 mi North 6.9 mph - N/A   Overcast
3:54 AM 55.0 °F 52.0 °F 89% 30.12 in 7.0 mi North 5.8 mph - N/A   Overcast
4:21 AM 55.4 °F 51.8 °F 88% 30.11 in 7.0 mi NNW 8.1 mph - N/A   Overcast
4:36 AM 55.4 °F 51.8 °F 88% 30.11 in 6.0 mi North 8.1 mph - 0.01 in Rain Light Rain
4:54 AM 55.0 °F 52.0 °F 89% 30.12 in 5.0 mi NNW 10.4 mph - 0.01 in   Overcast
5:54 AM 54.0 °F 51.1 °F 90% 30.12 in 5.0 mi North 8.1 mph - N/A   Overcast
6:54 AM 54.0 °F 50.0 °F 86% 30.12 in 5.0 mi North 9.2 mph - N/A   Overcast
7:10 AM 53.6 °F 50.0 °F 88% 30.11 in 3.0 mi North 9.2 mph - N/A   Overcast
7:28 AM 53.6 °F 50.0 °F 88% 30.11 in 2.5 mi North 11.5 mph - N/A   Overcast
7:37 AM 53.6 °F 50.0 °F 88% 30.11 in 3.0 mi North 9.2 mph - 0.00 in Rain Light Rain
7:49 AM 53.6 °F 51.8 °F 94% 30.12 in 2.5 mi North 6.9 mph - 0.00 in   Overcast
7:54 AM 54.0 °F 51.1 °F 90% 30.13 in 2.5 mi NNW 9.2 mph - 0.00 in   Overcast
8:18 AM 53.6 °F 51.8 °F 94% 30.13 in 3.0 mi North 6.9 mph - N/A   Overcast
8:51 AM 55.4 °F 51.8 °F 88% 30.13 in 2.5 mi North 5.8 mph - N/A   Overcast
8:54 AM 55.0 °F 51.1 °F 86% 30.14 in 2.5 mi NNW 8.1 mph - N/A   Overcast
9:10 AM 55.4 °F 51.8 °F 88% 30.14 in 3.0 mi NNW 8.1 mph - N/A   Overcast
9:54 AM 55.9 °F 53.1 °F 90% 30.13 in 4.0 mi NNE 10.4 mph 16.1 mph N/A   Overcast
10:54 AM 57.0 °F 53.1 °F 87% 30.13 in 8.0 mi North 9.2 mph - N/A   Overcast
11:44 AM 59.0 °F 53.6 °F 82% 30.13 in 10.0 mi North 5.8 mph - N/A   Overcast
11:54 AM 57.9 °F 54.0 °F 87% 30.13 in 10.0 mi North 6.9 mph - N/A   Overcast
12:54 PM 60.1 °F 55.9 °F 86% 30.11 in 3.0 mi North 4.6 mph - 0.00 in Rain Light Rain
1:54 PM 61.0 °F 55.9 °F 83% 30.09 in 6.0 mi North 8.1 mph - 0.01 in   Haze
2:54 PM 61.0 °F 55.9 °F 83% 30.09 in 10.0 mi North 6.9 mph - N/A   Overcast
3:54 PM 62.1 °F 57.0 °F 84% 30.08 in 10.0 mi North 6.9 mph - N/A   Overcast
4:54 PM 62.1 °F 57.0 °F 84% 30.07 in 5.0 mi North 8.1 mph - N/A   Haze
5:54 PM 62.1 °F 57.0 °F 84% 30.07 in 10.0 mi North 5.8 mph - N/A   Overcast
6:54 PM 61.0 °F 57.9 °F 90% 30.07 in 4.0 mi NNW 4.6 mph - N/A   Overcast
7:25 PM 60.8 °F 57.2 °F 88% 30.06 in 2.5 mi North 6.9 mph - N/A   Overcast
7:36 PM 60.8 °F 57.2 °F 88% 30.06 in 2.0 mi North 5.8 mph - N/A   Overcast
7:54 PM 61.0 °F 57.0 °F 87% 30.07 in 3.0 mi NNW 6.9 mph - N/A   Overcast
8:02 PM 60.8 °F 57.2 °F 88% 30.07 in 2.5 mi NNW 4.6 mph - N/A   Overcast
8:18 PM 60.8 °F 57.2 °F 88% 30.07 in 3.0 mi NNW 5.8 mph - N/A   Overcast
8:54 PM 60.1 °F 57.0 °F 90% 30.07 in 4.0 mi NNW 5.8 mph - N/A   Overcast
9:54 PM 60.1 °F 57.0 °F 90% 30.07 in 4.0 mi NNW 5.8 mph - N/A   Overcast
10:33 PM 60.8 °F 57.2 °F 88% 30.06 in 2.0 mi North 5.8 mph - N/A   Overcast
10:43 PM 60.8 °F 57.2 °F 88% 30.06 in 1.8 mi North 3.5 mph - N/A   Overcast
10:54 PM 60.1 °F 57.0 °F 90% 30.06 in 2.0 mi NNW 3.5 mph - N/A   Overcast
11:20 PM 60.8 °F 57.2 °F 88% 30.05 in 3.0 mi North 4.6 mph - N/A   Overcast
11:36 PM 60.8 °F 57.2 °F 88% 30.05 in 2.5 mi NNW 4.6 mph - N/A   Overcast
11:54 PM 60.1 °F 57.0 °F 90% 30.05 in 1.8 mi NNW 5.8 mph - N/A   Overcast